Regional Weather Roundup
Issued by NWS

Home | Current Version | Previous Version | Graphics & Text | Print | Product List | Glossary On
Versions: 1 2 3 4 5 6 7 8 9 10 11 12 13 14 15 16 17 18 19 20 21 22 23 24 25 26 27 28 29 30 31 32 33 34 35 36 37 38 39 40 41 42 43 44 45 46 47 48 49 50
000
ASUS43 KOAX 282102
RWRNE

WEATHER ROUNDUP FOR NEBRASKA
NATIONAL WEATHER SERVICE OMAHA NE
300 PM CST SAT FEB 28 2015

NOTES: SATELLITE DATA IS BEING USED TO AUGMENT CLOUD COVER ABOVE
       12000 FEET.
       "FAIR" INDICATES FEW OR NO CLOUDS BELOW 12,000 FEET WITH NO
       SIGNIFICANT WEATHER AND/OR OBSTRUCTIONS TO VISIBILITY.

  * THESE STATIONS DO NOT REPORT WEATHER SUCH AS RAIN...SNOW OR FOG.

NEZ001>004-019>022-054>056-282200-
NEBRASKA PANHANDLE

CITY           SKY/WX    TMP DP  RH WIND       PRES   REMARKS
SCOTTSBLUFF    SUNNY     32  11  41 E5        30.02F WCI  27
ALLIANCE       SUNNY     29   9  43 VRB6      30.02F WCI  23
CHADRON        SUNNY     27  14  58 SW3       30.08F
SIDNEY         SUNNY     25  12  58 SE5       30.01F WCI  19
$$

NEZ057>060-069>072-079>082-282200-
SOUTHWEST NEBRASKA

CITY           SKY/WX    TMP DP  RH WIND       PRES   REMARKS
NORTH PLATTE   MOSUNNY   28  10  46 S8        30.13F WCI  20
IMPERIAL         N/A     25   9  50 S3        30.08F
LEXINGTON      PTSUNNY   27  12  52 SW8       30.18F WCI  19
MCCOOK         CLOUDY    27  12  53 S9        30.15F WCI  18
$$

NEZ005>010-023>029-035>040-094-282200-
NORTH CENTRAL NEBRASKA

CITY           SKY/WX    TMP DP  RH WIND       PRES   REMARKS
VALENTINE      PTSUNNY   33  10  38 VRB5      30.09F WCI  29
AINSWORTH      SUNNY     31  10  42 W12       30.11F WCI  21
BROKEN BOW     CLOUDY    31  11  43 S12       30.15F WCI  22
ORD            CLOUDY    30   8  39 SW10G21   30.19F WCI  21
$$

NEZ041-046>049-061>064-073>077-083>087-282200-
SOUTH CENTRAL NEBRASKA

CITY           SKY/WX    TMP DP  RH WIND       PRES   REMARKS
GRAND ISLAND   CLOUDY    25  12  58 S13       30.26F WCI  14
AURORA         CLOUDY    23  13  67 SW12      30.27F WCI  11
HASTINGS       CLOUDY    21  13  71 S10       30.25F WCI  10
HEBRON         FLURRIES  21  14  72 S9        30.33F WCI  11
KEARNEY *      CLOUDY    25  10  54 S12G17    30.22F WCI  14
$$

NEZ011>018-030>034-042>045-282200-
NORTHEAST NEBRASKA

CITY           SKY/WX    TMP DP  RH WIND       PRES   REMARKS
NORFOLK        PTSUNNY   30  11  45 SW16G24   30.25F WCI  19
BLAIR          LGT SNOW  23  17  77 S13       30.35S WCI  11
COLUMBUS *     CLOUDY    25   9  50 S13G21    30.31F WCI  13
FREMONT        PTSUNNY   24  15  68 S13       30.34F WCI  12
$$

NEZ050>053-065>068-078-088>093-282200-
SOUTHEAST NEBRASKA

CITY           SKY/WX    TMP DP  RH WIND       PRES   REMARKS
LINCOLN        LGT SNOW  23  17  78 S8        30.36F WCI  14
OMAHA EPPLEY   LGT SNOW  22  16  78 S13       30.39F FOG     WCI  10
BEATRICE       LGT SNOW  22  16  78 S9        30.35S WCI  12
FALLS CITY     LGT SNOW  23  17  78 S10       30.40S WCI  12
NEBRASKA CITY  LGT SNOW  23  16  75 S7        30.37F WCI  14
$$

NEZ044-045-051>053-067-282200-
OMAHA AREA

CITY           SKY/WX    TMP DP  RH WIND       PRES   REMARKS
OMAHA EPPLEY   LGT SNOW  22  16  78 S13       30.39F FOG     WCI  10
BLAIR          LGT SNOW  23  17  77 S13       30.35S WCI  11
FREMONT        PTSUNNY   24  15  68 S13       30.34F WCI  12
OFFUTT AFB     LGT SNOW  22  17  80 S9        30.38F FOG     WCI  12
WAHOO          LGT SNOW  23  16  72 S10       30.35F WCI  13
$$


USA.gov is the U.S. government's official web portal to all federal, state and local government web resources and services.